Location: Maddington
(51.2000°N, 1.9167°W)
Time: 05:30:14
(UTC+00:00)

Cosmos 1733 - Pass Details

Date: 18 September 2020
Orbit: 504 x 523 km, 82.5° (Epoch: 20 October)

Event Time Altitude Azimuth Distance (km) Brightness Sun altitude
Exits shadow 20:52:20 45° 12° (NNE) 716 4.0 -23.9°
Drops below altitude 10° 20:55:06 10° 11° (N) 1,760 6.2 -24.3°
Sets 20:57:14 0° 11° (N) 2,649 7.2 -24.5°
